Location: Clermont
(50.2608°N, 4.3172°E)
Time: 09:25:30
(UTC+00:00)

Cosmos 1441 Rocket - Pass Details

Date: 13 August 2020
Orbit: 497 x 540 km, 81.1° (Epoch: 20 September)

Event Time Altitude Azimuth Distance (km) Brightness Sun altitude
Rises 19:57:39 0° 202° (SSW) 2,604 6.6 -8.2°
Reaches altitude 10° 19:59:49 10° 207° (SSW) 1,718 5.8 -8.5°
Maximum altitude 20:03:30 53° 285° (WNW) 627 4.1 -9.0°
Drops below altitude 10° 20:07:12 10° 4° (N) 1,716 6.3 -9.5°
Sets 20:09:21 0° 9° (N) 2,602 7.2 -9.7°
